| time (UTC) | temp F | wind direction | speed MPH | gust MPH | rain 1hr in | rain 24hr in | rain mn in | humidity % | barometer mb |
| 20260901211513 | 56 | 201 | 6.0 | 11.0 | 0.00 | 0.00 | 0.00 | 96 | 1026.7 |
| 20260901204513 | 56 | 184 | 5.0 | 7.0 | 0.00 | 0.00 | 0.00 | 96 | 1026.7 |
| 20260901203013 | 56 | 179 | 5.0 | 6.0 | 0.00 | 0.00 | 0.00 | 95 | 1026.7 |
| 20260901201513 | 56 | 173 | 6.0 | 10.0 | 0.00 | 0.00 | 0.00 | 95 | 1026.7 |
| 20260901200019 | 56 | 161 | 6.0 | 10.0 | 0.00 | 0.00 | 0.00 | 95 | 1026.7 |
| 20260901194518 | 56 | 142 | 3.0 | 4.0 | 0.00 | 0.00 | 0.00 | 95 | 1026.8 |
| 20260901193019 | 56 | 160 | 7.0 | 8.0 | 0.00 | 0.00 | 0.00 | 95 | 1026.6 |
| 20260901191519 | 56 | 205 | 7.0 | 10.0 | 0.00 | 0.00 | 0.00 | 94 | 1026.4 |
| 20260901190019 | 56 | 165 | 4.0 | 7.0 | 0.00 | 0.00 | 0.00 | 94 | 1026.3 |
| 20260901184518 | 56 | 157 | 4.0 | 7.0 | 0.00 | 0.00 | 0.00 | 94 | 1026.1 |
| 20260901183018 | 56 | 164 | 3.0 | 5.0 | 0.00 | 0.00 | 0.00 | 94 | 1026.2 |
| 20260901181518 | 56 | 160 | 1.0 | 4.0 | 0.00 | 0.00 | 0.00 | 94 | 1026.2 |
| 20260901180018 | 56 | 159 | 5.0 | 6.0 | 0.00 | 0.00 | 0.00 | 94 | 1026.0 |
| 20260901174518 | 56 | 128 | 6.0 | 9.0 | 0.00 | 0.00 | 0.00 | 95 | 1025.8 |
| 20260901173018 | 56 | 137 | 5.0 | 8.0 | 0.00 | 0.00 | 0.00 | 94 | 1025.8 |
| 20260901171518 | 57 | 130 | 7.0 | 10.0 | 0.00 | 0.00 | 0.00 | 94 | 1025.7 |
| 20260901170018 | 57 | 138 | 7.0 | 10.0 | 0.00 | 0.00 | 0.00 | 93 | 1025.7 |
| 20260901164518 | 57 | 118 | 7.0 | 11.0 | 0.00 | 0.00 | 0.00 | 92 | 1025.7 |
| 20260901163017 | 57 | 127 | 11.0 | 14.0 | 0.00 | 0.00 | 0.00 | 92 | 1025.8 |
| 20260901161517 | 58 | 131 | 9.0 | 13.0 | 0.00 | 0.00 | 0.00 | 91 | 1025.6 |
| 20260901160017 | 58 | 153 | 9.0 | 14.0 | 0.00 | 0.00 | 0.00 | 90 | 1026.1 |
| 20260901154516 | 59 | 165 | 15.0 | 24.0 | 0.00 | 0.00 | 0.00 | 89 | 1026.2 |
| 20260901153017 | 58 | 141 | 12.0 | 15.0 | 0.00 | 0.00 | 0.00 | 91 | 1026.0 |
| 20260901151517 | 58 | 123 | 13.0 | 18.0 | 0.00 | 0.00 | 0.00 | 92 | 1026.0 |
| 20260901150017 | 58 | 128 | 14.0 | 21.0 | 0.00 | 0.00 | 0.00 | 92 | 1026.2 |
| 20260901143016 | 58 | 115 | 14.0 | 18.0 | 0.00 | 0.00 | 0.00 | 91 | 1026.0 |
| 20260901141516 | 59 | 124 | 13.0 | 19.0 | 0.00 | 0.00 | 0.00 | 89 | 1026.3 |
| 20260901140016 | 59 | 133 | 15.0 | 23.0 | 0.00 | 0.00 | 0.00 | 88 | 1026.1 |
| 20260901133015 | 60 | 120 | 15.0 | 20.0 | 0.00 | 0.00 | 0.00 | 86 | 1026.5 |
| 20260901131516 | 59 | 121 | 10.0 | 15.0 | 0.00 | 0.00 | 0.00 | 89 | 1026.6 |
| 20260901130016 | 59 | 117 | 11.0 | 14.0 | 0.00 | 0.00 | 0.00 | 86 | 1026.4 |
| 20260901124515 | 59 | 128 | 8.0 | 14.0 | 0.00 | 0.00 | 0.00 | 85 | 1026.5 |
| 20260901123015 | 59 | 127 | 9.0 | 13.0 | 0.00 | 0.00 | 0.00 | 84 | 1026.6 |
| 20260901121514 | 60 | 117 | 11.0 | 17.0 | 0.00 | 0.00 | 0.00 | 83 | 1026.4 |
| 20260901120015 | 60 | 126 | 12.0 | 19.0 | 0.00 | 0.00 | 0.00 | 83 | 1026.4 |
| 20260901114514 | 60 | 141 | 11.0 | 15.0 | 0.00 | 0.00 | 0.00 | 83 | 1026.5 |
| 20260901113015 | 60 | 134 | 7.0 | 14.0 | 0.00 | 0.00 | 0.00 | 82 | 1026.4 |
| 20260901111514 | 61 | 96 | 8.0 | 16.0 | 0.00 | 0.00 | 0.00 | 81 | 1026.4 |
| 20260901110015 | 60 | 123 | 9.0 | 14.0 | 0.00 | 0.00 | 0.00 | 85 | 1026.6 |
| 20260901104513 | 59 | 99 | 9.0 | 16.0 | 0.00 | 0.00 | 0.00 | 85 | 1026.4 |
| 20260901101514 | 58 | 109 | 12.0 | 18.0 | 0.00 | 0.00 | 0.00 | 87 | 1026.4 |
| 20260901100014 | 59 | 111 | 9.0 | 14.0 | 0.00 | 0.00 | 0.00 | 86 | 1026.5 |
| 20260901094513 | 58 | 101 | 12.0 | 16.0 | 0.00 | 0.00 | 0.00 | 88 | 1026.4 |
| 20260901093013 | 58 | 102 | 11.0 | 16.0 | 0.00 | 0.00 | 0.00 | 87 | 1026.4 |
| 20260901091513 | 58 | 108 | 10.0 | 16.0 | 0.00 | 0.00 | 0.00 | 86 | 1026.4 |
| 20260901090013 | 58 | 102 | 9.0 | 16.0 | 0.00 | 0.00 | 0.00 | 89 | 1026.4 |
| 20260901084513 | 57 | 97 | 9.0 | 13.0 | 0.00 | 0.00 | 0.00 | 88 | 1026.3 |
| 20260901083013 | 57 | 89 | 11.0 | 16.0 | 0.00 | 0.00 | 0.00 | 87 | 1026.3 |
| 20260901081513 | 57 | 95 | 10.0 | 15.0 | 0.00 | 0.00 | 0.00 | 87 | 1026.1 |
| 20260901080014 | 58 | 89 | 8.0 | 12.0 | 0.00 | 0.00 | 0.00 | 86 | 1026.0 |
| 20260901074518 | 57 | 89 | 7.0 | 11.0 | 0.00 | 0.00 | 0.00 | 88 | 1025.9 |
| 20260901073019 | 58 | 91 | 7.0 | 12.0 | 0.00 | 0.00 | 0.00 | 90 | 1025.8 |
| 20260901071519 | 57 | 45 | 6.0 | 12.0 | 0.00 | 0.00 | 0.00 | 91 | 1025.7 |
| 20260901070018 | 57 | 68 | 8.0 | 12.0 | 0.00 | 0.00 | 0.00 | 93 | 1025.6 |
| 20260901064518 | 56 | 76 | 5.0 | 11.0 | 0.00 | 0.00 | 0.00 | 92 | 1025.7 |
| 20260901063018 | 56 | 71 | 6.0 | 10.0 | 0.00 | 0.00 | 0.00 | 92 | 1025.6 |
| 20260901061518 | 56 | 86 | 5.0 | 8.0 | 0.00 | 0.00 | 0.00 | 93 | 1025.6 |
| 20260901060018 | 56 | 96 | 7.0 | 8.0 | 0.00 | 0.00 | 0.00 | 91 | 1025.6 |
| 20260901054517 | 56 | 101 | 6.0 | 8.0 | 0.00 | 0.00 | 0.00 | 90 | 1025.5 |
| 20260901051517 | 56 | 98 | 8.0 | 10.0 | 0.00 | 0.00 | 0.00 | 87 | 1025.3 |
| 20260901050017 | 56 | 101 | 7.0 | 9.0 | 0.00 | 0.00 | 0.00 | 86 | 1025.1 |
| 20260901043018 | 57 | 85 | 5.0 | 8.0 | 0.00 | 0.00 | 0.00 | 84 | 1024.9 |
| 20260901033017 | 57 | 39 | 4.0 | 6.0 | 0.00 | 0.00 | 0.00 | 81 | 1024.4 |
| 20260901030017 | 57 | 36 | 1.0 | 5.0 | 0.00 | 0.00 | 0.00 | 81 | 1024.4 |
| 20260901024516 | 58 | 157 | 0.0 | 2.0 | 0.00 | 0.00 | 0.00 | 82 | 1024.6 |
| 20260901023016 | 58 | 134 | 2.0 | 6.0 | 0.00 | 0.00 | 0.00 | 82 | 1024.8 |
| 20260901021516 | 58 | 16 | 3.0 | 4.0 | 0.00 | 0.00 | 0.00 | 80 | 1024.4 |
| 20260901020016 | 57 | 8 | 5.0 | 7.0 | 0.00 | 0.00 | 0.00 | 84 | 1024.6 |
| 20260901014516 | 58 | 34 | 1.0 | 3.0 | 0.00 | 0.00 | 0.00 | 79 | 1024.3 |
| 20260901013016 | 58 | 77 | 2.0 | 4.0 | 0.00 | 0.00 | 0.00 | 84 | 1024.7 |
| 20260901011515 | 58 | 92 | 4.0 | 7.0 | 0.00 | 0.00 | 0.00 | 84 | 1024.7 |
| 20260901010016 | 58 | 166 | 0.0 | 4.0 | 0.00 | 0.00 | 0.00 | 78 | 1024.5 |
| 20260901004515 | 58 | 165 | 1.0 | 3.0 | 0.00 | 0.00 | 0.00 | 80 | 1024.6 |
| 20260901003016 | 58 | 186 | 1.0 | 4.0 | 0.00 | 0.00 | 0.00 | 83 | 1024.8 |
| 20260901001514 | 58 | 186 | 2.0 | 4.0 | 0.00 | 0.00 | 0.00 | 83 | 1024.9 |
| 20260831234514 | 59 | 176 | 3.0 | 6.0 | 0.00 | 0.00 | 0.00 | 76 | 1024.5 |
| 20260831233015 | 60 | 226 | 3.0 | 5.0 | 0.00 | 0.00 | 0.00 | 69 | 1024.4 |
| 20260831231515 | 60 | 238 | 2.0 | 8.0 | 0.00 | 0.00 | 0.00 | 68 | 1024.3 |
| 20260831224514 | 60 | 226 | 18.0 | 22.0 | 0.00 | 0.00 | 0.00 | 67 | 1023.9 |
| 20260831223014 | 60 | 222 | 22.0 | 27.0 | 0.00 | 0.00 | 0.00 | 69 | 1023.7 |
| 20260831221514 | 60 | 217 | 22.0 | 27.0 | 0.00 | 0.00 | 0.00 | 69 | 1023.8 |
| 20260831220016 | 60 | 212 | 21.0 | 25.0 | 0.00 | 0.00 | 0.00 | 68 | 1023.8 |
| 20260831214514 | 60 | 218 | 20.0 | 24.0 | 0.00 | 0.00 | 0.00 | 68 | 1023.8 |